AirNav   Air Wisconsin pilot careers
 
 315 users online  

8F6 Murdo Municipal Airport
Murdo, South Dakota, USA

GOING TO MURDO?


FAA INFORMATION EFFECTIVE 29 MARCH 2018

Location

FAA Identifier: 8F6
Lat/Long: 43-51-07.7000N / 100-42-46.1000W
43-51.128333N / 100-42.768333W
43.8521389 / -100.7128056
(estimated)
Elevation: 2270.1 ft. / 691.9 m (surveyed)
Variation: 09E (1985)
From city: 3 miles S of MURDO, SD
Time zone: UTC -6 (UTC -7 during Standard Time)
Zip code: 57559

Airport Operations

Airport use: Open to the public
Activation date: 08/1974
Control tower: no
ARTCC: MINNEAPOLIS CENTER
FSS: HURON FLIGHT SERVICE STATION
NOTAMs facility: HON (NOTAM-D service available)
Attendance: UNATNDD
Wind indicator: lighted
Segmented circle: yes
Beacon: white-green (lighted land airport)
Operates sunset to sunrise.

Airport Communications

CTAF/UNICOM: 122.8

Airport Services

Parking: tiedowns
Powerplant service: NONE
Bottled oxygen: NONE

Runway Information

Runway 14/32

Dimensions: 4000 x 60 ft. / 1219 x 18 m
Surface: asphalt, in good condition
Weight bearing capacity: 
Single wheel: 12.5
RUNWAY 14  RUNWAY 32
Latitude: 43-51.409417N43-50.846147N
Longitude: 100-43.004320W100-42.533472W
Elevation: 2270.1 ft.2254.8 ft.
Gradient: 0.4% DOWN0.4% UP
Traffic pattern: leftleft
Runway heading: 140 magnetic, 149 true320 magnetic, 329 true
Markings: basic, in good conditionbasic, in good condition
Runway end identifier lights: no
Touchdown point: yes, no lightsyes, no lights
Obstructions: none8 ft. fence, 390 ft. from runway, 23:1 slope to clear

Airport Ownership and Management from official FAA records

Ownership: Publicly-owned
Owner: CITY OF MURDO
PO BOX 432
MURDO, SD 57559
Phone 605-669-2272
Manager: KRYSTI BARNES
PO BOX 432
MURDO, SD 57559
Phone 605-669-2272

Airport Operational Statistics

Aircraft based on the field: 1
Single engine airplanes: 1
    
Aircraft operations: avg 33/month *
75% transient general aviation
25% local general aviation
* for 12-month period ending 18 August 2016

Additional Remarks

UNATTENDED. WILDLIFE ON & INVOF ARPT.
RUNWAY 14/32: H4000X60

Instrument Procedures

There are no published instrument procedures at 8F6.

Some nearby airports with instrument procedures:

KSUO - Rosebud Sioux Tribal Airport (36 nm S)
KPIR - Pierre Regional Airport (37 nm NE)
KPHP - Philip Airport (40 nm W)
KICR - Winner Regional Airport (47 nm SE)
98D - Onida Municipal Airport (57 nm NE)
 
Loc | Ops | Rwys | IFR | FBO | Links
Com | Nav | Svcs | Stats | Notes

Mandan Aero Center
 
Area around 8F6 (Murdo Municipal Airport)
 
Road maps at: MapQuest Bing Google
 
Aerial photo
WARNING: Photo may not be current or correct
Aerial photo of 8F6 (Murdo Municipal Airport)
Photo by Steve Hamilton
Photo taken 29-Oct-2008

Do you have a better or more recent aerial photo of Murdo Municipal Airport that you would like to share? If so, please send us your photo.

 
Sectional chart

 
Airport distance calculator
Flying to Murdo Municipal Airport? Find the distance to fly.

From to 8F6

Sunrise and sunset
Times for 21-Apr-2018
 Local
(UTC-6)
 Zulu
(UTC)
Morning civil twilight05:2011:20
Sunrise05:5111:51
Sunset19:3201:32
Evening civil twilight20:0302:03

Current date and time
Zulu (UTC)  21-Apr-2018 08:48:27
Local (UTC-6)  21-Apr-2018 02:48:27
 
METAR
KPIR 
37nm NE 
210753Z AUTO 16005KT 10SM -RA BKN075 OVC095 05/04 A3031 RMK AO2 RAB29 SLP270 P0000 T00500044
KPHP 
40nm W 
210755Z AUTO 00000KT 10SM -RA OVC039 05/04 A3030 RMK AO2 RAE00B51 SLP265 P0000 T00500044
KICR 
47nm SE 
210753Z AUTO 15007KT 10SM OVC080 04/02 A3030 RMK AO2 SLP272 T00440017
TAF
KPIR 
37nm NE 
210531Z 2106/2206 14008KT P6SM OVC100 FM211800 14011KT P6SM OVC080 FM220200 14009KT P6SM SCT140
NOTAMs
Click for the latest NOTAMs
NOTAMs are issued by the DoD/FAA and will open in a separate window not controlled by AirNav.

 

 
 

Would you like to see your business listed on this page?

 If your business provides an interesting product or service to pilots, flight crews, aircraft, or users of the Murdo Municipal Airport, you should consider listing it here.  To start the listing process, click on the button below
 
Add a business
 

Other Pages about Murdo Municipal Airport

Update a link
 
Copyright © AirNav, LLC. All rights reserved. Privacy Policy  Contact